Regional Weather Roundup
Issued by NWS

Home | Current Version | Previous Version | Graphics & Text | Print | Product List | Glossary On
Versions: 1 2 3 4 5 6 7 8 9 10 11 12 13 14 15 16 17 18 19 20 21 22 23 24 25 26 27 28 29 30 31 32 33 34 35 36 37 38 39 40 41 42 43 44 45 46 47 48 49 50
000
ASUS43 KMKX 190021
RWRWI

WISCONSIN REGIONAL WEATHER ROUNDUP
NATIONAL WEATHER SERVICE MILWAUKEE/SULLIVAN WI
700 PM CDT FRI AUG 18 2017

NOTE: "FAIR" INDICATES FEW OR NO CLOUDS BELOW 12,000 FEET WITH NO
SIGNIFICANT WEATHER AND/OR OBSTRUCTIONS TO VISIBILITY.

WIZ001-002-006>008-014>016-023>028-190100-
NORTHWEST WISCONSIN

CITY           SKY/WX    TMP DP  RH WIND       PRES   REMARKS
SUPERIOR ARPT    N/A     69  65  86 S6        29.84R
6HR MIN TEMP:  69; 6HR MAX TEMP:  73;

ASHLAND        MOSUNNY   69  62  78 W6        29.84S
6HR MIN TEMP:  69; 6HR MAX TEMP:  74;

HAYWARD        CLOUDY    68  62  81 VRB3      29.87F
6HR MIN TEMP:  68; 6HR MAX TEMP:  72;

SIREN          MOSUNNY   70  62  76 W5        29.88S
6HR MIN TEMP:  66; 6HR MAX TEMP:  71;

CUMBERLAND     CLOUDY    66  61  82 W3        29.88F
RICE LAKE      CLOUDY    68  64  87 CALM      29.89S
6HR MIN TEMP:  68; 6HR MAX TEMP:  71;

CHETEK           N/A     68  64  88 CALM      29.88S
6HR MIN TEMP:  68; 6HR MAX TEMP:  71;

LADYSMITH      CLOUDY    68  60  74 W3        29.90R
6HR MIN TEMP:  68; 6HR MAX TEMP:  71;

EAU CLAIRE     CLOUDY    68  63  84 SW7       29.88R
6HR MIN TEMP:  68; 6HR MAX TEMP:  71;

MENOMONIE      CLOUDY    68  62  79 SW3       29.89R
6HR MIN TEMP:  68; 6HR MAX TEMP:  71;

NEW RICHMOND   CLOUDY    70  62  76 CALM      29.89S
6HR MIN TEMP:  68; 6HR MAX TEMP:  73;

OSCEOLA        MOSUNNY   73  63  71 W5        29.91S
6HR MIN TEMP:  70; 6HR MAX TEMP:  73;

$$

WIZ003>005-009-010-017-018-190100-
NORTH CENTRAL WISCONSIN

CITY           SKY/WX    TMP DP  RH WIND       PRES   REMARKS
MANITOWISH WTR PTCLDY    64  60  85 W5        29.87R
6HR MIN TEMP:  64; 6HR MAX TEMP:  68;

ARBOR VITAE    CLOUDY    65  58  76 NW3       29.87S
6HR MIN TEMP:  65; 6HR MAX TEMP:  72;

WOODRUFF       CLOUDY    65  58  76 NW3       29.87S
6HR MIN TEMP:  65; 6HR MAX TEMP:  72;

RHINELANDER    CLOUDY    65  58  78 CALM      29.88R
6HR MIN TEMP:  65; 6HR MAX TEMP:  70; 6HR PCP: TRACE;

EAGLE RIVER    CLOUDY    65  55  69 NW5       29.86S
6HR MIN TEMP:  64; 6HR MAX TEMP:  70;

LAND O LAKES   CLOUDY    63  58  83 CALM      29.88S
6HR MIN TEMP:  63; 6HR MAX TEMP:  69;

PHILLIPS       CLOUDY    64  61  89 CALM      29.87S
6HR MIN TEMP:  64; 6HR MAX TEMP:  70;

TOMAHAWK         N/A     64  58  79 CALM      29.88R
6HR MIN TEMP:  64; 6HR MAX TEMP:  69;

MEDFORD        PTCLDY    65  59  82 W5        29.88S
6HR MIN TEMP:  65; 6HR MAX TEMP:  67;

MERRILL        CLOUDY    66  63  88 W5        29.87R
$$

WIZ029-030-035-036-043>047-190100-
CENTRAL WISCONSIN

CITY           SKY/WX    TMP DP  RH WIND       PRES   REMARKS
WAUSAU         CLOUDY    67  59  75 W8        29.86R
6HR MIN TEMP:  67; 6HR MAX TEMP:  69;

MOSINEE        MOCLDY    66  61  82 W7        29.89R
MARSHFIELD     LGT RAIN  66  61  84 W6        29.88R
6HR MIN TEMP:  66; 6HR MAX TEMP:  69; 6HR PCP: TRACE;

STEVENS POINT  CLOUDY    66  60  81 W3        29.88S
6HR MIN TEMP:  66; 6HR MAX TEMP:  69;

WAUPACA        CLOUDY    71  61  70 W5        29.87R
6HR MIN TEMP:  70; 6HR MAX TEMP:  75;

WAUTOMA        CLOUDY    69  60  73 W9        29.88R
6HR MIN TEMP:  69; 6HR MAX TEMP:  76;

WISC RAPIDS    LGT RAIN  66  63  90 W6        29.89S
6HR MIN TEMP:  66; 6HR MAX TEMP:  73; 6HR PCP: TRACE;

CAMP DOUGLAS   CLOUDY    66  62  87 W6        29.89R
6HR MIN TEMP:  66; 6HR MAX TEMP:  71; 6HR PCP: TRACE;

$$

WIZ011>013-019>022-031-037>040-048>050-190100-
NORTHEAST WISCONSIN

CITY           SKY/WX    TMP DP  RH WIND       PRES   REMARKS
ANTIGO         CLOUDY    65  60  83 NW3       29.87R
6HR MIN TEMP:  65; 6HR MAX TEMP:  68;

SHAWANO        CLOUDY    70  61  72 W6        29.84S
6HR MIN TEMP:  70; 6HR MAX TEMP:  74;

OCONTO         CLOUDY    69  59  71 N6        29.82R
6HR MIN TEMP:  69; 6HR MAX TEMP:  73;

STURGEON BAY   CLOUDY    68  59  73 N13       29.83R
6HR MIN TEMP:  67; 6HR MAX TEMP:  71;

GREEN BAY      CLOUDY    69  63  81 W7        29.83S
6HR MIN TEMP:  68; 6HR MAX TEMP:  73;

MANITOWOC      MOCLDY    71  59  65 W7        29.83S
6HR MIN TEMP:  71; 6HR MAX TEMP:  73;

APPLETON       MOCLDY    68  55  64 W10       29.84S
CLINTONVILLE   CLOUDY    68  57  68 W7        29.85R
OSHKOSH        CLOUDY    70  59  68 NW8       29.85S
6HR MIN TEMP:  69; 6HR MAX TEMP:  75;

$$

WIZ032>034-041-042-053>061-190100-
SOUTHWEST WISCONSIN

CITY           SKY/WX    TMP DP  RH WIND       PRES   REMARKS
LA CROSSE      CLOUDY    72  64  76 CALM      29.89R
6HR MIN TEMP:  72; 6HR MAX TEMP:  74; 6HR PCP: TRACE;

SPARTA         CLOUDY    66  63  87 CALM      29.90S
6HR MIN TEMP:  66; 6HR MAX TEMP:  71;

VIROQUA        CLOUDY    65  64  96 CALM      29.92S
6HR MIN TEMP:  65; 6HR MAX TEMP:  70;

BOSCOBEL       CLOUDY    71  62  73 VRB3      29.90S
6HR MIN TEMP:  71; 6HR MAX TEMP:  77; 6HR PCP: TRACE;

PRAIRIE DU CHI MOSUNNY   71  59  66 CALM      29.90S
6HR MIN TEMP:  71; 6HR MAX TEMP:  75;

PLATTEVILLE    CLEAR     71  64  77 NW6       29.91S
6HR MIN TEMP:  71; 6HR MAX TEMP:  76;

$$

WIZ056-057-062-063-064-067-068-190100-
SOUTH CENTRAL WISCONSIN

CITY           SKY/WX    TMP DP  RH WIND       PRES   REMARKS
REEDSBURG      CLOUDY    68  62  79 NW7       29.89S
6HR MIN TEMP:  68; 6HR MAX TEMP:  74;

BARABOO/DELLS  CLOUDY    68  59  72 W5        29.89S
6HR MIN TEMP:  68; 6HR MAX TEMP:  75;

LONE ROCK      CLOUDY    70  63  78 W8        29.89S
6HR MIN TEMP:  70; 6HR MAX TEMP:  76;

MINERAL POINT  CLOUDY    72  63  73 NW6       29.92S
MADISON        CLOUDY    70  60  70 VRB5      29.87S
6HR MIN TEMP:  70; 6HR MAX TEMP:  77;

MIDDLETON      CLOUDY    71  61  71 W6        29.89S
6HR MIN TEMP:  71; 6HR MAX TEMP:  78;

WATERTOWN      CLOUDY    71  61  72 W7        29.86S
6HR MIN TEMP:  71; 6HR MAX TEMP:  77;

MONROE         CLOUDY    70  59  68 NW6       29.90S
JANESVILLE     MOCLDY    73  61  64 NW8       29.88R
$$

WIZ051-052-058>065-066-070>072-190100-
SOUTHEAST WISCONSIN

CITY           SKY/WX    TMP DP  RH WIND       PRES   REMARKS
MILWAUKEE      MOCLDY    77  60  55 W10       29.84S
6HR MIN TEMP:  74; 6HR MAX TEMP:  80;

WAUKESHA       CLEAR     72  57  60 W12       29.86S
MILWAUKEE/TIMM PTCLDY    73  55  53 W10       29.85S
RACINE         CLEAR     75  62  64 W7        29.86S
6HR MIN TEMP:  73; 6HR MAX TEMP:  78;

KENOSHA        PTCLDY    75  61  61 W8        29.85S
6HR MIN TEMP:  74; 6HR MAX TEMP:  79;

FOND DU LAC    CLOUDY    71  58  63 NW8       29.85S
6HR MIN TEMP:  69; 6HR MAX TEMP:  77;

SHEBOYGAN      PTCLDY    72  62  71 NW8G16    29.84S
6HR MIN TEMP:  69; 6HR MAX TEMP:  75;

WEST BEND      CLOUDY    72  61  68 W9        29.85S
JUNEAU         PTCLDY    69  60  73 CALM      29.87S
6HR MIN TEMP:  69; 6HR MAX TEMP:  74;

$$

LSZ147-162-190100-
LAKE SUPERIOR

STATION/POSITION TIME  TEMP    WIND        PRES    WAVE
                       AIR SEA DIR/SP/G            HT/PER
                 (UTC) (F)     (DEG/KT/KT) (MB)    (FT/S)
W MID LAKE BUOY  2350   63 60  240/ 10/ 12 1009.3R   1/ 5
DEVILS ISLAND    0000   66     230/ 10/ 11 1009.7F
SAXON HARBOR     2330   67     160/  2/  3 1010.2S
$$

LMZ867-665-643>646-190100-
LAKE MICHIGAN

STATION/POSITION TIME  TEMP    WIND        PRES    WAVE
                       AIR SEA DIR/SP/G            HT/PER
                 (UTC) (F)     (DEG/KT/KT) (MB)    (FT/S)
S GREEN BAY BUOY 0000   71 71  330/  4/  6 1009.7
N MID LAKE BUOY  2350   65 67  300/ 17/ 21 1009.6R   2/



USA.gov is the U.S. government's official web portal to all federal, state and local government web resources and services.